TimeEST,TemperatureF,Dew PointF,Humidity,Sea Level PressureIn,VisibilityMPH,Wind Direction,Wind SpeedMPH,Gust SpeedMPH,PrecipitationIn,Events,Conditions,WindDirDegrees,DateUTC
12:15 AM,35.6,25.7,67,29.94,10.0,NW,13.8,19.6,N/A,,Overcast,310,2012-11-05 05:15:00
12:35 AM,35.6,25.2,66,29.94,10.0,NW,12.7,17.3,N/A,,Overcast,310,2012-11-05 05:35:00
12:55 AM,35.6,24.8,65,29.94,10.0,NW,13.8,18.4,N/A,,Overcast,320,2012-11-05 05:55:00
1:15 AM,35.6,25.0,65,29.94,10.0,NW,12.7,19.6,N/A,,Overcast,310,2012-11-05 06:15:00
1:35 AM,35.6,24.4,64,29.94,10.0,NW,12.7,16.1,N/A,,Overcast,310,2012-11-05 06:35:00
1:55 AM,35.6,24.1,63,29.95,10.0,NW,8.1,16.1,N/A,,Overcast,310,2012-11-05 06:55:00
2:15 AM,35.2,23.7,63,29.94,10.0,NW,12.7,20.7,N/A,,Overcast,320,2012-11-05 07:15:00
2:35 AM,35.2,23.9,63,29.94,10.0,NW,10.4,16.1,N/A,,Overcast,310,2012-11-05 07:35:00
2:55 AM,35.2,23.5,62,29.94,10.0,NW,9.2,-,N/A,,Overcast,310,2012-11-05 07:55:00
3:15 AM,35.1,23.9,64,29.94,10.0,NW,8.1,-,N/A,,Overcast,310,2012-11-05 08:15:00
3:35 AM,35.1,23.5,63,29.95,10.0,NW,10.4,-,N/A,,Overcast,320,2012-11-05 08:35:00
3:55 AM,34.9,23.0,62,29.95,10.0,NW,11.5,-,N/A,,Overcast,310,2012-11-05 08:55:00
4:15 AM,34.9,22.8,61,29.96,10.0,NW,11.5,-,N/A,,Overcast,310,2012-11-05 09:15:00
4:35 AM,34.7,23.0,62,29.96,10.0,NW,11.5,16.1,N/A,,Overcast,320,2012-11-05 09:35:00
4:55 AM,34.7,22.8,62,29.96,10.0,NW,9.2,-,N/A,,Overcast,310,2012-11-05 09:55:00
5:15 AM,34.3,22.5,62,29.96,10.0,WNW,10.4,-,N/A,,Overcast,300,2012-11-05 10:15:00
5:35 AM,34.2,22.3,62,29.96,10.0,NW,10.4,-,N/A,,Overcast,310,2012-11-05 10:35:00
5:55 AM,33.8,21.6,61,29.96,10.0,NW,9.2,18.4,N/A,,Overcast,320,2012-11-05 10:55:00
6:15 AM,33.4,22.5,64,29.96,10.0,WNW,6.9,-,N/A,,Overcast,290,2012-11-05 11:15:00
6:55 AM,33.3,23.5,68,29.97,10.0,WNW,5.8,-,N/A,,Overcast,290,2012-11-05 11:55:00
7:15 AM,32.9,23.2,67,29.98,10.0,West,5.8,-,N/A,,Overcast,280,2012-11-05 12:15:00
7:35 AM,32.9,23.2,67,29.99,10.0,WNW,6.9,-,N/A,,Scattered Clouds,290,2012-11-05 12:35:00
7:55 AM,33.8,23.5,66,29.99,10.0,WNW,5.8,-,N/A,,Scattered Clouds,290,2012-11-05 12:55:00
8:15 AM,34.5,23.9,65,29.99,10.0,West,9.2,-,N/A,,Scattered Clouds,270,2012-11-05 13:15:00
8:35 AM,35.2,23.7,63,30.00,10.0,NW,6.9,-,N/A,,Clear,310,2012-11-05 13:35:00
8:55 AM,36.0,24.3,63,29.99,10.0,WNW,9.2,18.4,N/A,,Scattered Clouds,300,2012-11-05 13:55:00
9:15 AM,35.4,22.8,60,29.99,10.0,WNW,9.2,-,N/A,,Clear,300,2012-11-05 14:15:00
9:35 AM,37.9,23.0,55,30.00,10.0,NW,11.5,17.3,N/A,,Clear,310,2012-11-05 14:35:00
9:55 AM,37.4,23.0,56,30.00,10.0,WNW,9.2,-,N/A,,Scattered Clouds,300,2012-11-05 14:55:00
10:15 AM,37.4,22.3,54,30.00,10.0,NW,10.4,-,N/A,,Mostly Cloudy,320,2012-11-05 15:15:00
10:35 AM,37.8,23.0,55,30.00,10.0,WNW,8.1,16.1,N/A,,Mostly Cloudy,290,2012-11-05 15:35:00
10:55 AM,35.6,24.4,64,30.00,10.0,WNW,9.2,-,N/A,,Overcast,290,2012-11-05 15:55:00
11:15 AM,36.1,23.2,59,29.99,10.0,WNW,5.8,-,N/A,,Overcast,300,2012-11-05 16:15:00
11:35 AM,37.4,22.8,56,29.99,10.0,NW,8.1,-,N/A,,Mostly Cloudy,310,2012-11-05 16:35:00
11:55 AM,37.6,22.6,55,29.99,10.0,West,9.2,-,N/A,,Mostly Cloudy,280,2012-11-05 16:55:00
12:15 PM,36.9,21.9,55,29.98,10.0,West,10.4,16.1,N/A,,Overcast,270,2012-11-05 17:15:00
12:35 PM,36.9,22.6,56,29.98,10.0,NW,10.4,-,N/A,,Overcast,320,2012-11-05 17:35:00
12:55 PM,36.0,21.9,57,29.99,10.0,NW,11.5,-,N/A,,Overcast,310,2012-11-05 17:55:00
1:15 PM,35.8,21.2,55,29.99,10.0,NW,13.8,17.3,N/A,,Overcast,310,2012-11-05 18:15:00
1:35 PM,36.3,20.3,52,29.99,10.0,NW,9.2,19.6,N/A,,Mostly Cloudy,320,2012-11-05 18:35:00
1:55 PM,36.3,19.2,50,29.99,10.0,NW,13.8,-,N/A,,Mostly Cloudy,320,2012-11-05 18:55:00
2:15 PM,35.8,16.7,46,29.99,10.0,NW,11.5,-,N/A,,Overcast,320,2012-11-05 19:15:00
2:35 PM,35.4,17.8,49,30.00,10.0,NNW,12.7,20.7,N/A,,Overcast,330,2012-11-05 19:35:00
2:55 PM,35.2,17.1,48,30.00,10.0,NW,11.5,21.9,N/A,,Overcast,310,2012-11-05 19:55:00
3:15 PM,34.9,16.0,46,30.01,10.0,NW,6.9,-,N/A,,Overcast,310,2012-11-05 20:15:00
3:35 PM,35.2,16.0,45,30.01,10.0,NW,8.1,-,N/A,,Mostly Cloudy,310,2012-11-05 20:35:00
3:55 PM,34.0,15.8,47,30.01,10.0,NW,8.1,-,N/A,,Scattered Clouds,310,2012-11-05 20:55:00
4:15 PM,33.6,16.3,49,30.02,10.0,NW,6.9,-,N/A,,Clear,310,2012-11-05 21:15:00
4:35 PM,33.4,17.6,52,30.03,10.0,NW,10.4,16.1,N/A,,Clear,320,2012-11-05 21:35:00
4:55 PM,32.5,18.5,56,30.03,10.0,NNW,4.6,-,N/A,,Mostly Cloudy,340,2012-11-05 21:55:00
5:15 PM,32.9,19.2,57,30.04,10.0,NW,5.8,-,N/A,,Overcast,320,2012-11-05 22:15:00
5:35 PM,33.1,21.2,62,30.05,10.0,WNW,9.2,16.1,N/A,,Overcast,290,2012-11-05 22:35:00
5:55 PM,32.9,21.7,64,30.06,10.0,WNW,4.6,-,N/A,,Overcast,300,2012-11-05 22:55:00
6:15 PM,32.0,21.2,64,30.06,10.0,WNW,3.5,-,N/A,,Scattered Clouds,300,2012-11-05 23:15:00
6:35 PM,31.8,21.7,66,30.07,10.0,Calm,Calm,-,N/A,,Scattered Clouds,0,2012-11-05 23:35:00
6:55 PM,31.1,21.7,68,30.07,10.0,Calm,Calm,-,N/A,,Scattered Clouds,0,2012-11-05 23:55:00
7:15 PM,30.0,21.2,70,30.08,10.0,Calm,Calm,-,N/A,,Scattered Clouds,0,2012-11-06 00:15:00
7:35 PM,31.1,19.8,63,30.08,10.0,NW,3.5,-,N/A,,Mostly Cloudy,310,2012-11-06 00:35:00
7:55 PM,31.6,18.7,59,30.09,10.0,NW,6.9,-,N/A,,Overcast,310,2012-11-06 00:55:00
8:15 PM,32.0,17.1,54,30.09,10.0,NNW,3.5,-,N/A,,Overcast,330,2012-11-06 01:15:00
8:35 PM,32.0,17.8,56,30.09,10.0,NW,5.8,-,N/A,,Mostly Cloudy,310,2012-11-06 01:35:00
9:15 PM,31.5,19.4,61,30.10,10.0,NW,3.5,-,N/A,,Overcast,310,2012-11-06 02:15:00
9:35 PM,32.0,18.7,58,30.10,10.0,NW,8.1,-,N/A,,Overcast,320,2012-11-06 02:35:00
9:55 PM,31.8,19.2,60,30.10,10.0,WNW,3.5,-,N/A,,Overcast,300,2012-11-06 02:55:00
10:15 PM,31.3,19.2,61,30.09,10.0,NW,3.5,-,N/A,,Overcast,320,2012-11-06 03:15:00
10:35 PM,31.8,19.2,60,30.09,10.0,Calm,Calm,-,N/A,,Overcast,0,2012-11-06 03:35:00
11:15 PM,31.5,20.8,65,30.09,10.0,WNW,3.5,-,N/A,,Overcast,300,2012-11-06 04:15:00
11:35 PM,31.1,21.4,67,30.10,10.0,WNW,4.6,-,N/A,,Mostly Cloudy,300,2012-11-06 04:35:00
11:55 PM,30.6,21.4,69,30.10,10.0,Calm,Calm,-,N/A,,Scattered Clouds,0,2012-11-06 04:55:00